[[{"header":{"parameterUnit":"m.s-1","parameterCategory":1,"la1":30.2991,"la2":30.254,"lo1":-89.0895,"lo2":-89.0444,"dy":0.0017,"dx":0.0017,"nx":28,"ny":28,"refTime":"2025-03-12T21:00:00:Z","depth":0,"parameterNumber":2,"parameterNumberName":"U-component_of_WINDS"},"data":[0,0,0,0,0,0,0,0,0,0,0,0,0,0,0,0,0,0,0,0,0,0,0,0,0,0,0,0,0,0,0,0,0,0,0,0,0,0,0,0,0,0,0,0,0,0,0,0,0,0,0,0,0,0,0,0,0,0,-4.3653,-4.3654,0,-4.3746,-4.3747,-4.3748,-4.3777,-4.3777,-4.3776,-4.3776,-4.3867,-4.387,-4.3873,0,0,0,0,0,0,0,0,0,0,0,0,0,-4.3496,-4.3499,-4.3653,-4.3654,-4.3655,-4.3746,-4.3747,-4.3749,-4.3777,-4.3777,-4.3776,-4.3776,-4.3866,-4.387,-4.3873,0,0,0,0,0,0,0,0,0,0,0,0,0,-4.3574,-4.35,-4.3653,-4.3681,-4.3684,-4.3746,-4.3747,-4.3749,-4.3777,-4.3777,-4.3776,-4.3776,-4.3865,-4.3869,-4.3873,-4.3913,0,0,-4.3886,-4.3888,0,0,0,0,0,0,0,0,-4.357,-4.358,-4.3675,-4.3679,-4.3683,-4.375,-4.3725,-4.3804,-4.3778,-4.3742,-4.3776,-4.3775,-4.3828,-4.3835,-4.3854,-4.3917,-4.3921,-4.3887,-4.3889,-4.3891,-4.3892,0,0,0,0,0,0,0,-4.3564,-4.3576,-4.369,-4.3677,-4.3681,-4.3687,-4.3698,-4.374,-4.3787,-4.3745,-4.3747,-4.3758,-4.383,-4.385,-4.3857,-4.3922,-4.3887,-4.389,-4.3893,-4.3895,-4.4022,-4.4023,0,0,0,0,0,0,-4.3555,-4.3571,-4.3687,-4.3692,-4.3624,-4.3691,-4.3702,-4.3729,-4.3787,-4.3795,-4.3759,-4.3759,-4.3843,-4.3852,-4.386,-4.391,-4.3891,-4.3895,-4.3898,-4.4021,-4.4022,-4.4023,0,0,0,0,0,0,-4.3551,-4.3565,-4.3683,-4.3633,-4.3648,-4.3694,-4.3723,-4.3731,-4.3751,-4.3797,-4.3806,-4.3771,-4.3843,-4.3854,-4.39,-4.3913,-4.3897,-4.3901,-4.402,-4.4021,-4.4022,-4.4009,0,0,0,0,0,0,-4.3546,-4.3563,-4.3579,-4.3633,-4.3651,-4.3722,-4.3724,-4.3733,-4.3759,-4.376,-4.3811,-4.3819,-4.3843,-4.3893,-4.3904,-4.3919,-4.3904,-4.4019,-4.4021,-4.4022,-4.4008,-4.401,-4.4011,0,0,0,0,0,-4.3541,-4.3571,-4.358,-4.3594,-4.3672,-4.3723,-4.3733,-4.3762,-4.376,-4.3776,-4.3806,-4.3817,-4.391,-4.3898,-4.391,-4.3926,-4.4018,-4.402,-4.4022,-4.4008,-4.4009,-4.4011,0,0,0,0,0,0,-4.3516,-4.3578,-4.3589,-4.3638,-4.3675,-4.3728,-4.3749,-4.3763,-4.38,-4.38,-4.3833,-4.3844,-4.3887,-4.3912,-4.3896,-4.3967,-4.3965,-4.3969,-4.395,-4.3952,-4.3953,-4.3945,-4.3908,0,0,0,0,0,-4.3517,-4.3554,-4.3606,-4.3644,-4.3662,-4.3702,-4.3725,-4.3745,-4.3784,-4.3799,-4.3833,-4.3869,-4.3907,-4.3931,-4.3968,-4.4013,-4.4024,-4.403,-4.4031,-4.4032,-4.4035,-4.406,-4.4063,-4.4029,-4.4029,-4.4029,0,0,-4.3517,-4.3556,-4.3577,-4.364,-4.3671,-4.3707,-4.3715,-4.3753,-4.3781,-4.3805,-4.385,-4.3876,-4.3919,-4.3964,-4.3986,-4.3986,-4.4047,-4.4034,-4.4034,-4.4037,-4.4062,-4.4065,-4.4068,-4.403,-4.403,-4.403,0,0,-4.3537,-4.3571,-4.3606,-4.3637,-4.3685,-4.3712,-4.372,-4.3771,-4.379,-4.3837,-4.3856,-4.3888,-4.3952,-4.3982,-4.4006,-4.4038,-4.405,-4.4049,-4.4055,-4.4079,-4.4082,-4.4084,-4.4095,-4.4099,-4.4053,-4.4053,-4.4053,0,-4.3532,-4.3589,-4.3622,-4.366,-4.3686,-4.3712,-4.3747,-4.3776,-4.3832,-4.3849,-4.3849,-4.3931,-4.3961,-4.4014,-4.4022,-4.4041,-4.405,-4.4043,-4.4079,-4.4082,-4.4084,-4.4095,-4.4099,-4.4052,-4.4052,-4.4052,-4.4052,0,-4.3579,-4.3619,-4.3641,-4.3697,-4.3726,-4.3763,-4.38,-4.3825,-4.3843,-4.3869,-4.3916,-4.3954,-4.4,-4.4014,-4.403,-4.4069,-4.4067,-4.4073,-4.407,-4.4087,-4.4097,-4.4102,-4.4052,-4.4052,-4.4052,-4.4052,0,0,-4.3585,-4.366,-4.3667,-4.3693,-4.3748,-4.3778,-4.3816,-4.3862,-4.3883,-4.3921,-4.3952,-4.4007,-4.4013,-4.4039,-4.406,-4.4081,-4.4104,-4.4084,-4.4085,-4.4085,-4.4148,-4.4143,-4.4147,-4.4113,-4.4113,-4.4114,-4.4144,0,-4.3611,-4.368,-4.3711,-4.3766,-4.3802,-4.3827,-4.386,-4.3896,-4.3922,-4.3956,-4.3985,-4.4023,-4.4027,-4.4044,-4.4066,-4.4096,-4.4117,-4.4095,-4.4141,-4.4142,-4.4128,-4.4153,-4.4148,-4.4174,-4.4149,-4.4149,-4.415,0,-4.3651,-4.3691,-4.3749,-4.3801,-4.3817,-4.3846,-4.389,-4.3923,-4.3965,-4.3982,-4.4013,-4.4033,-4.4072,-4.4068,-4.4122,-4.4107,-4.4128,-4.4145,-4.4147,-4.4151,-4.4146,-4.4157,-4.4183,-4.4187,-4.4157,-4.4156,-4.4156,0,-4.3648,-4.3717,-4.3761,-4.3782,-4.3843,-4.3862,-4.3888,-4.393,-4.3956,-4.3995,-4.4012,-4.4054,-4.4077,-4.4109,-4.4139,-4.4134,-4.419,-4.4189,-4.4205,-4.4204,-4.4214,-4.4213,-4.4243,-4.423,-4.4229,-4.4229,-4.4229,0,-4.3673,-4.3708,-4.376,-4.3787,-4.3826,-4.3861,-4.3899,-4.3927,-4.3964,-4.3996,-4.402,-4.4049,-4.4088,-4.4122,-4.4146,-4.4187,-4.4197,-4.4212,-4.4217,-4.4209,-4.4207,-4.4222,-4.422,-4.423,-4.423,-4.423,-4.423,0,-4.3676,-4.3713,-4.3762,-4.3817,-4.3831,-4.3857,-4.3903,-4.393,-4.3958,-4.3998,-4.4009,-4.4052,-4.4094,-4.4128,-4.4182,-4.4198,-4.424,-4.4247,-4.4226,-4.4229,-4.4242,-4.424,-4.4282,-4.4289,-4.4272,-4.4272,-4.4272,0,-4.3689,-4.3717,-4.3775,-4.3798,-4.3825,-4.3862,-4.3889,-4.3925,-4.3952,-4.4002,-4.4023,-4.4066,-4.4103,-4.4167,-4.4203,-4.4244,-4.4252,-4.4264,-4.4258,-4.4249,-4.4251,-4.4248,-4.4251,-4.4264,-4.4264,-4.4264,-4.4264,0,-4.3709,-4.3726,-4.3764,-4.3809,-4.3841,-4.3878,-4.3915,-4.3933,-4.3976,-4.4004,-4.4048,-4.4076,-4.4132,-4.4174,-4.422,-4.4246,-4.4261,-4.4266,-4.4271,-4.4262,-4.4248,-4.4255,-4.4226,-4.4264,-4.4264,-4.4264,-4.4264,-4.4264,-4.3717,-4.3742,-4.3787,-4.3829,-4.3861,-4.3896,-4.3924,-4.3956,-4.3993,-4.4042,-4.4061,-4.4105,-4.4146,-4.4209,-4.4235,-4.427,-4.4271,-4.428,-4.4282,-4.4283,-4.4281,-4.4244,-4.4278,-4.4278,-4.4278,-4.4278,-4.4278,0,-4.3737,-4.3767,-4.3806,-4.3858,-4.3891,-4.3905,-4.3947,-4.3973,-4.4012,-4.405,-4.4086,-4.4136,-4.4178,-4.4217,-4.426,-4.428,-4.4289,-4.429,-4.4289,-4.4294,-4.4278,-4.4268,-4.4283,-4.4283,-4.4283,-4.4283,-4.4283,-4.4283,-4.3751,-4.3795,-4.3817,-4.3877,-4.3907,-4.3951,-4.3974,-4.4006,-4.4037,-4.4091,-4.4127,-4.4153,-4.4191,-4.4238,-4.4276,-4.4287,-4.4301,-4.4301,-4.4313,-4.4296,-4.4295,-4.4294,-4.4286,-4.4304,-4.4304,-4.4327,-4.4327,-4.4327]},{"header":{"parameterUnit":"m.s-1","parameterCategory":1,"la1":30.2991,"la2":30.254,"lo1":-89.0895,"lo2":-89.0444,"dy":0.0017,"dx":0.0017,"nx":28,"ny":28,"refTime":"2025-03-12T21:00:00:Z","depth":0,"parameterNumber":3,"parameterNumberName":"V-component_of_WINDS"},"data":[0,0,0,0,0,0,0,0,0,0,0,0,0,0,0,0,0,0,0,0,0,0,0,0,0,0,0,0,0,0,0,0,0,0,0,0,0,0,0,0,0,0,0,0,0,0,0,0,0,0,0,0,0,0,0,0,0,0,6.1436,6.1435,0,6.1401,6.14,6.14,6.1346,6.1345,6.1344,6.1343,6.1306,6.1306,6.1306,0,0,0,0,0,0,0,0,0,0,0,0,0,6.1456,6.1456,6.1436,6.1435,6.1435,6.1401,6.14,6.14,6.1346,6.1345,6.1344,6.1342,6.1306,6.1306,6.1306,0,0,0,0,0,0,0,0,0,0,0,0,0,6.1437,6.1456,6.1436,6.1404,6.1401,6.1401,6.14,6.14,6.1346,6.1345,6.1343,6.1342,6.1306,6.1306,6.1306,6.1334,0,0,6.1305,6.1305,0,0,0,0,0,0,0,0,6.1438,6.1436,6.1409,6.1406,6.1402,6.1376,6.1394,6.1378,6.1346,6.1367,6.1343,6.1341,6.133,6.1328,6.1325,6.1332,6.1331,6.1305,6.1305,6.1305,6.1305,0,0,0,0,0,0,0,6.1439,6.1437,6.1422,6.1409,6.1405,6.1391,6.1387,6.139,6.1357,6.1365,6.1361,6.1358,6.1328,6.1325,6.1323,6.133,6.1305,6.1305,6.1305,6.1305,6.1361,6.1362,0,0,0,0,0,0,6.1445,6.1439,6.1423,6.1421,6.1417,6.1392,6.1387,6.1386,6.1357,6.1351,6.1359,6.1355,6.1326,6.1324,6.1322,6.1354,6.1305,6.1305,6.1305,6.1359,6.1361,6.1363,0,0,0,0,0,0,6.1446,6.1444,6.1424,6.1429,6.1425,6.1393,6.1392,6.1386,6.1383,6.1352,6.1346,6.1362,6.1325,6.1322,6.1332,6.1352,6.1305,6.1305,6.1357,6.136,6.1362,6.1419,0,0,0,0,0,0,6.1447,6.1445,6.1455,6.1429,6.1425,6.1435,6.1394,6.1386,6.1383,6.1378,6.1353,6.1348,6.1323,6.1332,6.1332,6.1351,6.1305,6.1355,6.1358,6.1361,6.1415,6.1423,6.143,0,0,0,0,0,6.1448,6.1472,6.1456,6.1455,6.1437,6.1436,6.1434,6.1405,6.1385,6.1395,6.1376,6.1349,6.135,6.1334,6.1333,6.1352,6.1354,6.1358,6.1361,6.1412,6.1421,6.1429,0,0,0,0,0,0,6.1501,6.1468,6.145,6.1467,6.1455,6.1427,6.1439,6.1416,6.141,6.1405,6.137,6.1365,6.1379,6.1366,6.1349,6.1379,6.1348,6.1351,6.1387,6.1396,6.1403,6.1406,6.1305,0,0,0,0,0,6.1515,6.1517,6.1488,6.1505,6.15,6.1471,6.1469,6.1449,6.1435,6.1429,6.1411,6.1398,6.1396,6.1395,6.1391,6.1413,6.1407,6.1426,6.1433,6.1439,6.1443,6.1455,6.1463,6.1374,6.1374,6.1374,0,0,6.1543,6.1525,6.1528,6.1516,6.1504,6.1507,6.1467,6.1472,6.1474,6.143,6.1438,6.1425,6.1408,6.1425,6.1431,6.1414,6.1466,6.1444,6.1449,6.1449,6.146,6.1468,6.1476,6.1377,6.1376,6.1376,0,0,6.1596,6.1583,6.1596,6.1586,6.1569,6.155,6.1553,6.1529,6.1519,6.1527,6.1494,6.1496,6.1493,6.1483,6.1477,6.1529,6.1504,6.1528,6.1567,6.1579,6.1586,6.1592,6.1612,6.1619,6.1532,6.1532,6.1532,0,6.1633,6.1637,6.1606,6.1614,6.1609,6.1571,6.1585,6.1576,6.1559,6.1557,6.1539,6.1535,6.1521,6.1535,6.1548,6.1544,6.1548,6.1531,6.1587,6.1593,6.1598,6.1617,6.1624,6.1535,6.1535,6.1535,6.1534,0,6.1684,6.1687,6.17,6.1686,6.1683,6.1693,6.1665,6.1666,6.1646,6.1628,6.1638,6.162,6.1613,6.1614,6.1594,6.1627,6.1617,6.1594,6.1562,6.1611,6.1627,6.1634,6.154,6.1539,6.1538,6.1537,0,0,6.1769,6.1739,6.1744,6.1738,6.1717,6.1719,6.1728,6.1721,6.1723,6.1713,6.172,6.1719,6.1698,6.1692,6.167,6.1681,6.1725,6.1656,6.1656,6.1671,6.1761,6.1779,6.1788,6.1708,6.1709,6.171,6.1763,0,6.1819,6.1834,6.1807,6.1828,6.1831,6.1795,6.1803,6.1792,6.1776,6.1777,6.1759,6.1759,6.173,6.1727,6.1736,6.1718,6.1743,6.1713,6.1716,6.1716,6.1722,6.1796,6.1815,6.1866,6.1769,6.177,6.1771,0,6.1879,6.1873,6.1895,6.1874,6.1874,6.1882,6.1875,6.1875,6.1862,6.185,6.1844,6.1819,6.1827,6.1797,6.1808,6.1789,6.1788,6.178,6.1781,6.1781,6.1747,6.1799,6.1881,6.1889,6.178,6.178,6.1779,0,6.1942,6.1938,6.1951,6.1946,6.1922,6.1929,6.1919,6.1904,6.1902,6.1895,6.1894,6.1888,6.1886,6.1882,6.1857,6.1836,6.1872,6.1838,6.1863,6.1864,6.1872,6.1872,6.1956,6.187,6.187,6.187,6.187,0,6.2001,6.2016,6.1979,6.1987,6.2003,6.1972,6.1989,6.1975,6.1962,6.1968,6.1935,6.1941,6.1907,6.1909,6.1889,6.1902,6.1901,6.1892,6.1886,6.1895,6.1897,6.1895,6.1891,6.1872,6.1872,6.1871,6.1871,0,6.2073,6.2049,6.206,6.2037,6.2031,6.2044,6.2024,6.2031,6.2013,6.202,6.202,6.1993,6.1994,6.1968,6.1963,6.195,6.1973,6.196,6.1977,6.1974,6.2,6.1999,6.2087,6.2097,6.2004,6.2005,6.2006,0,6.2113,6.2124,6.2101,6.2103,6.2095,6.2097,6.2095,6.2066,6.2065,6.2052,6.206,6.2059,6.2056,6.2059,6.2039,6.2035,6.2024,6.2055,6.2023,6.2032,6.2026,6.2026,6.2028,6.2062,6.2063,6.2064,6.2065,0,6.2187,6.2175,6.2173,6.2169,6.2168,6.2162,6.2155,6.2158,6.2126,6.2127,6.2128,6.2126,6.2122,6.2121,6.2114,6.2104,6.208,6.2075,6.2081,6.209,6.21,6.2097,6.1997,6.2073,6.2072,6.2072,6.2071,6.2071,6.2245,6.2253,6.2239,6.224,6.2231,6.2225,6.2231,6.2215,6.2215,6.2209,6.2192,6.2196,6.2183,6.2172,6.2164,6.2167,6.2152,6.216,6.2162,6.2165,6.217,6.2099,6.2166,6.2165,6.2165,6.2165,6.2165,0,6.2318,6.2308,6.2308,6.2299,6.23,6.2277,6.2268,6.227,6.2274,6.2264,6.2262,6.2264,6.2263,6.2244,6.2241,6.2247,6.2236,6.2247,6.2247,6.2246,6.2183,6.2179,6.2257,6.2257,6.2257,6.2257,6.2257,6.2257,6.2357,6.237,6.2357,6.2366,6.2355,6.2359,6.2356,6.2351,6.2343,6.2347,6.2346,6.2333,6.232,6.2316,6.2315,6.2309,6.231,6.2326,6.2316,6.2259,6.225,6.2241,6.2237,6.2326,6.2326,6.2378,6.2379,6.2379]}]]